#timestamp,LO_Frequency,Hit,StdDev 
1583132415.9,286046994.9,Y
1583132435.7,286046998.8,P
1583132455.6,286046998.8,P
1583132475.4,286046996.9,P
1583132495.2,286046997.0,Y
1583132515.1,286047000.7,P
1583132516.0,286047000.7,N
1583132535.8,286046998.1,N
1583132555.7,286046998.7,N
1583132575.5,286047001.2,N
1583132595.3,286046999.2,N
1583132615.2,286046997.7,N
1583132635.0,286046997.7,N
1583132635.9,286046997.7,N
1583132655.8,286046997.1,N
1583132675.6,286046997.3,N
1583132695.4,286046997.5,N
1583132715.3,286046997.7,N
1583132735.1,286046997.0,N
1583132755.8,286046997.9,N
1583132775.7,286046994.9,Y
1583132795.5,286046996.6,P
1583132815.4,286046997.1,P
1583132835.2,286046997.5,P
1583132855.0,286046994.9,Y
1583132855.9,286046994.9,P
1583132875.8,286046998.9,N
1583132895.6,286046998.7,N
1583132915.4,286046999.2,N
1583132935.3,286046999.3,N
1583132955.1,286046997.2,N
1583132975.9,286046999.0,N
1583132995.7,286046999.6,N
1583133015.5,286046996.5,N
1583133035.4,286046997.0,N
1583133055.2,286046996.7,N
1583133075.0,286046996.8,N
1583133076.0,286047011.9,Y
1583133095.8,286047000.9,P
1583133115.6,286046998.6,N
1583133135.5,286046998.9,N
1583133155.3,286046998.4,N
1583133175.1,286046998.9,N
1583133195.9,286046998.1,N
1583133215.7,286046998.3,N
1583133235.6,286046998.3,N
1583133255.4,286047000.6,N
1583133275.2,286047000.8,N
1583133295.1,286047001.2,N
1583133296.0,286047001.2,N
1583133315.8,286047000.8,N
1583133335.7,286047000.3,N
1583133355.5,286046998.5,N
1583133375.3,286046998.7,N
1583133395.2,286046998.8,N
1583133415.0,286046999.4,N
1583133415.9,286046999.4,N
1583133435.7,286046998.8,N
1583133455.6,286046996.9,N
1583133475.4,286046996.9,N
1583133495.3,286046999.3,N
1583133515.1,286046997.9,N
1583133535.8,286046996.6,N
1583133555.7,286046999.3,N
1583133575.5,286046999.0,N
1583133595.4,286046998.4,N
1583133615.2,286046998.3,N
1583133635.0,286046999.3,N
1583133635.9,286046999.3,N
1583133655.8,286046998.8,N
1583133675.6,286046999.5,N
1583133695.4,286046999.0,N
1583133715.3,286046998.4,N
1583133735.1,286047001.2,N
1583133755.9,286047000.7,N
1583133775.7,286046998.3,N
1583133795.5,286046998.8,N
1583133815.4,286047000.8,N
1583133835.2,286046999.0,N
1583133855.0,286046998.2,N
1583133856.0,286046998.2,N
1583133875.8,286046998.4,N
1583133895.6,286046998.1,N
1583133915.5,286046999.3,N
1583133935.3,286046996.6,Y
1583133955.1,286046998.7,P
1583133975.9,286046999.5,P
1583133995.7,286046998.9,P
1583134015.6,286046998.1,Y
1583134035.4,286047000.0,P
1583134055.2,286047002.4,P
1583134075.1,286047000.3,N
1583134076.0,286047000.3,N
1583134095.8,286047000.4,N
1583134115.6,286047002.7,N
1583134135.5,286047002.5,N
1583134155.3,286047002.2,N
1583134175.2,286047001.4,N
1583134195.9,286047001.3,N
1583134215.7,286047003.8,Y
1583134235.6,286047002.3,P
1583134255.4,286046999.8,N
1583134275.3,286046999.7,N
1583134295.1,286046999.7,N
1583134296.0,286046999.7,N
1583134315.8,286046999.7,N
1583134335.7,286047000.1,N
1583134355.5,286046999.8,N
1583134375.3,286047002.4,N
1583134395.2,286047002.7,N
1583134415.0,286046999.9,N
1583134415.9,286046999.9,N
1583134435.8,286047002.1,N
1583134455.6,286047002.3,N
1583134475.4,286047002.0,N
1583134495.3,286047004.4,Y
1583134515.1,286047002.5,P
1583134535.8,286047002.2,N
1583134555.7,286047002.2,N
1583134575.5,286047002.1,Y
1583134595.4,286047000.6,P
1583134615.2,286046999.9,N
1583134635.0,286047002.5,N
1583134635.9,286047002.5,N
1583134655.8,286047000.7,N
1583134675.6,286047000.7,N
1583134695.4,286047000.7,N
1583134715.3,286047000.4,N
1583134735.1,286047002.6,N
1583134755.9,286046999.9,N
1583134775.7,286047002.7,N
1583134795.5,286047001.5,N
1583134815.4,286047002.1,N
1583134835.2,286047003.9,Y
1583134855.1,286047001.7,P
1583134856.0,286047001.7,P
1583134875.8,286047001.3,P
1583134895.6,286047001.3,Y
1583134915.5,286047002.5,P
1583134935.3,286047002.5,P
1583134955.1,286047002.0,P
1583134975.9,286047001.5,Y
1583134995.7,286047000.6,P
1583135015.6,286047001.2,N
1583135035.4,286047001.2,N
1583135055.2,286047000.6,N
1583135075.1,286047000.5,N
1583135076.0,286047000.5,N
1583135095.8,286047000.6,N
1583135115.6,286047000.1,N
1583135135.5,286047002.5,Y
1583135155.3,286047000.9,P
1583135175.2,286047000.6,P
1583135195.9,286047000.2,N
1583135215.7,286046998.2,Y
1583135235.6,286046998.1,P
1583135255.4,286047000.9,N
1583135275.3,286047000.5,N
1583135295.1,286046998.5,N
1583135296.0,286046998.5,N
1583135315.8,286047000.4,N
1583135335.7,286046999.7,N
1583135355.5,286046999.8,N
1583135375.3,286047004.3,Y
1583135395.2,286047003.9,P
1583135415.0,286047003.5,N
1583135415.9,286047003.5,N
1583135435.8,286047005.6,Y
1583135455.6,286047002.6,P
1583135475.4,286047002.6,P
1583135495.3,286047011.9,P
1583135515.1,286047002.0,N
1583135535.8,286047002.0,N
1583135555.7,286047003.6,N
1583135575.5,286047005.9,N
1583135595.4,286047004.1,N
1583135615.2,286047001.4,N
1583135635.0,286047003.4,N
1583135635.9,286047003.4,N
1583135655.8,286047003.4,N
1583135675.6,286047003.2,N
1583135695.4,286047004.1,N
1583135715.3,286047005.3,N
1583135735.1,286047004.8,N
1583135755.9,286047007.4,Y
1583135775.7,286047004.1,P
1583135795.5,286047004.0,P
1583135815.4,286047003.2,P
1583135835.2,286047001.5,Y
1583135855.0,286047000.8,P
1583135855.9,286047000.8,N
1583135875.8,286047000.7,N
1583135895.6,286047000.8,N
1583135915.5,286047000.4,N
1583135935.3,286047002.3,N
1583135955.1,286047002.8,N
1583135975.9,286046999.7,N
1583135995.7,286047002.2,N
